Tracking 31027 objects as of 19-Jul-2025
HD Live streaming from Space Station
objects crossing your sky now

XSAT

Track XSAT now!
10-day predictions
XSAT is classified as:


NORAD ID: 37389
Int'l Code: 2011-015C
Perigee: 806.2 km
Apogee: 824.7 km
Inclination: 98.3 °
Period: 101.0 minutes
Semi major axis: 7186 km
RCS: 0.4978 m2 (medium)
Launch date: April 20, 2011
Source: Singapore (SING)
Launch site: SRIHARIKOTA (SRI)

X-SAT, Singapore's first national satellite, has a multi-spectral camera and will demonstrate space-based remote sensing and image processing technologies.
Your satellite tracking list
ATLAS 2A CENTAUR R/B
Track 1 satellite(s)




NASA's NSSDC Master Catalog

Two Line Element Set (TLE):
1 37389U 11015C   25199.94331977  .00000080  00000-0  51751-4 0  9998
2 37389  98.3134 188.6035 0012925 239.2517 120.7391 14.25051612740213
Source of the keplerian elements: AFSPC